Probability
0 0 0 0 0 0 0 0 0 0 0 1 1 2 4 5 4 1 0 0 1 2 2 1 0 0 0 0 0 0 0 0 0 1 0 0 0 0 0 0 0 0 0
0 0 0 0 0 0 0 0 0 0 0 1 1 2 4 5 4 2 1 0 0 1 2 2 1 0 0 0 0 0 0 0 0 1 0 0 0 0 0 0 0 0 0
0 0 0 0 0 1 1 0 0 0 0 0 0 1 4 5 4 3 2 1 0 0 1 1 1 0 0 0 0 0 0 0 0 0 0 0 0 0 0 0 0 0 0
0 0 0 0 0 1 1 0 0 0 0 0 0 0 2 4 4 4 3 2 1 0 0 0 1 1 1 1 0 0 0 1 1 0 0 0 0 0 0 0 0 0 0
0 0 0 0 0 0 0 0 0 0 0 0 0 0 0 2 3 3 3 3 2 1 0 0 0 1 2 2 1 0 0 1 1 1 1 0 0 0 0 0 0 0 0
0 0 0 0 0 0 0 0 0 0 0 0 0 0 0 0 1 1 2 3 3 2 1 0 0 0 1 2 2 1 0 1 1 2 2 1 0 0 0 0 0 0 0
0 0 0 0 0 0 0 0 0 0 0 0 0 0 0 0 0 0 1 3 3 3 2 1 0 0 0 1 1 1 0 0 1 2 2 1 1 0 0 0 0 0 0
0 0 0 0 0 0 0 0 0 0 0 0 0 0 0 0 0 0 0 2 3 3 3 2 1 0 0 0 0 0 0 0 1 1 1 1 1 0 0 0 0 0 0
0 0 0 0 0 0 0 0 0 0 0 0 0 0 0 0 0 0 0 1 2 3 3 3 1 0 0 0 0 0 0 0 0 0 0 1 1 0 0 0 0 0 0
0 0 0 0 0 0 0 0 0 0 0 0 0 0 0 0 0 0 0 1 2 3 3 3 2 1 0 0 0 0 0 0 0 0 0 0 0 0 0 0 0 0 0
0 0 1 1 0 0 0 0 0 0 0 0 0 0 0 0 0 0 0 1 2 3 3 3 3 2 0 0 0 0 0 0 0 0 0 0 0 0 0 0 0 0 0
0 0 1 2 1 0 0 0 0 0 0 0 0 0 0 0 0 0 0 1 2 3 3 3 2 1 0 0 0 0 0 0 0 0 0 0 0 0 0 0 0 0 0
0 0 1 2 2 1 0 0 0 0 0 0 0 0 0 0 0 0 0 0 1 1 2 2 1 0 0 0 0 0 0 0 0 0 0 0 0 0 0 0 0 0 0
0 0 1 2 3 2 1 0 0 0 0 0 0 0 0 0 0 0 0 0 0 0 1 1 0 0 0 0 0 0 0 0 0 0 0 0 0 0 0 0 0 0 0
0 0 1 2 3 3 1 0 0 0 0 0 0 0 0 0 0 0 0 0 0 0 0 0 0 0 0 0 0 0 0 0 0 0 0 0 0 0 0 0 0 0 0
0 0 0 1 3 3 2 1 0 0 0 0 0 0 0 0 0 0 0 0 0 0 0 0 0 0 0 0 0 0 0 0 0 0 0 0 0 0 0 0 0 0 0
0 0 0 1 2 3 3 2 1 0 0 0 0 0 0 0 0 0 0 0 0 0 0 0 0 0 0 0 0 0 0 0 0 0 0 0 0 0 0 0 0 0 0
0 0 0 1 2 3 3 2 1 0 0 0 0 0 0 0 0 0 0 0 0 0 0 0 0 0 0 0 0 0 0 0 0 0 0 0 0 0 0 0 0 0 0
0 0 0 1 2 3 3 2 1 0 0 0 0 0 0 0 0 0 0 0 0 0 0 0 0 0 0 0 0 0 0 0 0 0 0 0 0 0 0 0 0 0 0
0 0 0 1 2 3 2 1 0 0 0 0 0 0 0 0 0 0 0 0 0 0 0 0 0 0 0 0 0 0 0 0 0 0 0 0 0 0 0 0 0 0 0
0 0 0 1 3 3 1 0 0 0 0 0 0 0 0 0 0 0 0 0 0 0 0 0 0 0 0 0 0 0 0 0 0 0 0 0 0 0 0 0 0 0 0
0 0 1 2 3 2 1 0 0 0 0 0 0 0 0 0 0 0 0 0 0 0 0 0 0 0 0 0 0 0 0 0 0 0 0 0 0 0 0 0 0 0 0
0 0 1 2 2 1 0 0 0 0 0 0 0 0 0 0 0 0 0 0 0 0 0 0 0 0 0 0 0 0 0 0 0 0 0 0 0 0 0 0 0 0 0
0 0 1 2 1 0 0 0 0 0 0 0 0 0 0 0 0 0 0 0 0 0 0 0 0 0 0 0 0 0 0 0 0 0 0 0 0 0 0 0 0 0 0
0 0 1 1 0 0 0 0 0 0 0 0 0 0 0 0 0 0 0 0 0 0 0 0 0 0 0 0 0 0 0 0 0 0 0 0 0 0 0 0 0 0 0
0 0 0 0 0 0 0 0 0 0 0 0 0 0 0 0 0 0 0 0 0 0 0 0 0 0 0 0 0 0 0 0 0 0 0 0 0 0 0 0 0 0 0
Wind_Speed
1 1 1 1 1 1 0 1 1 1 1 1 1 1 1 1 1 1 1 2 2 3 4 4 4 4 5 5 5 4 4 4 4 5 5 5 6 6 6 6 6 6 6
0 1 1 1 1 1 1 0 1 1 1 1 1 2 2 2 1 1 1 2 3 3 4 4 5 5 6 6 6 6 6 5 6 6 6 6 6 6 6 7 7 7 7
1 1 1 1 1 1 1 0 1 1 1 1 2 2 2 2 2 2 2 1 2 3 4 5 5 6 7 7 6 6 6 6 6 6 6 6 7 7 7 7 8 8 9
1 1 1 1 1 1 0 1 0 1 1 1 2 2 2 2 2 2 2 1 1 1 3 4 5 6 7 8 7 7 7 7 7 7 7 7 7 8 8 8 8 9 10
2 1 1 1 1 0 1 1 1 1 1 2 2 2 2 2 2 2 2 2 2 2 2 3 5 6 7 8 8 8 8 8 8 8 8 8 9 9 9 10 10 10 11
2 1 1 2 1 1 1 1 1 1 2 2 2 2 2 2 2 2 2 2 2 2 2 2 2 4 6 7 8 9 9 9 9 9 9 9 9 10 10 10 10 11 11
2 1 1 1 1 1 2 2 1 1 2 1 0 2 2 2 2 2 2 2 1 2 1 2 2 2 3 6 7 9 10 10 10 10 10 10 10 10 10 11 11 11 12
2 2 1 2 2 1 2 2 1 1 1 0 0 0 2 2 1 1 1 1 2 1 1 2 2 3 2 2 5 8 10 11 11 12 11 11 11 11 12 12 11 11 11
2 2 2 2 2 2 2 2 2 2 2 1 1 1 1 2 2 2 2 2 1 1 2 2 3 3 3 3 3 6 9 10 12 13 13 12 12 12 12 11 10 11 11
3 3 3 3 3 2 2 2 2 2 2 2 2 2 2 2 2 2 2 2 2 3 3 3 3 3 4 3 4 6 8 9 11 13 13 13 13 13 12 11 11 11 11
3 3 3 3 3 2 3 3 3 3 3 3 3 2 2 2 3 2 3 2 2 3 3 3 3 3 3 3 3 5 8 9 10 11 12 13 13 13 12 11 11 11 11
3 3 3 3 3 3 3 3 3 3 3 4 4 3 3 2 3 3 3 3 3 3 3 3 3 3 3 3 4 7 8 9 10 10 11 11 12 12 12 12 12 12 11
3 4 3 3 3 3 3 3 3 3 4 4 4 4 4 4 2 3 3 3 4 3 2 2 3 2 2 2 4 7 7 9 9 9 9 10 10 10 11 11 11 11 11
4 4 4 4 4 4 3 3 3 4 3 4 4 4 3 3 3 3 3 3 4 3 2 3 2 2 2 2 5 7 5 8 8 9 9 9 9 9 9 10 10 10 10
4 4 4 4 4 3 3 3 3 3 3 3 3 3 3 3 3 3 3 3 4 5 5 3 2 2 2 2 5 4 3 7 9 9 9 8 8 8 9 9 9 9 9
4 4 4 4 3 3 3 3 3 3 3 3 3 3 3 3 3 3 3 4 4 5 6 3 3 3 3 3 5 4 4 8 8 8 9 8 8 8 8 8 8 9 9
4 4 4 4 3 3 3 2 3 3 4 3 3 3 4 4 3 3 3 3 4 4 6 4 2 3 3 3 4 3 4 4 4 7 8 8 7 7 7 7 8 8 8
4 4 4 4 4 3 3 3 3 3 4 4 4 3 4 3 3 3 3 4 4 4 4 5 3 2 3 3 3 4 4 3 3 5 7 8 7 7 7 7 8 8 8
4 4 4 4 4 4 4 3 3 3 4 4 4 4 4 3 4 3 4 4 3 3 3 4 4 2 2 2 3 3 3 3 3 4 6 6 6 7 7 7 7 6 7
4 4 4 4 4 4 4 4 3 4 4 4 4 4 4 4 5 4 4 4 3 3 3 3 3 2 2 2 1 3 3 3 3 3 4 4 6 7 7 7 6 5 6
4 4 3 4 4 3 4 4 4 4 4 4 4 4 4 5 6 5 4 3 3 2 2 3 3 3 2 2 2 2 3 3 3 2 2 3 3 3 4 6 5 5 5
4 3 3 4 4 4 6 6 5 4 4 4 4 4 4 4 5 6 6 5 4 4 4 3 4 4 4 3 2 2 2 3 3 2 2 4 2 3 3 2 5 5 5
3 3 4 4 4 5 6 6 6 3 4 4 4 3 3 3 4 3 4 5 5 5 5 4 5 5 4 3 3 3 2 3 3 3 2 4 3 3 3 4 6 6 5
3 3 4 4 4 5 6 6 5 3 3 3 3 3 3 3 3 3 2 2 2 3 4 3 3 4 4 3 4 3 3 2 2 2 2 3 2 3 4 3 6 5 5
3 3 3 3 3 4 6 5 4 2 2 3 3 3 3 3 4 3 2 2 2 3 3 3 3 3 4 3 2 1 1 1 3 2 1 1 2 3 3 2 3 6 6
3 3 3 3 3 3 5 5 5 1 2 2 3 3 4 4 4 3 2 2 2 3 2 2 2 3 3 3 3 1 2 2 2 2 1 0 1 2 2 2 2 3 4
Wind_Direction
24 6 355 356 354 1 5 345 338 341 337 320 313 294 270 270 254 265 290 289 264 258 260 266 269 272 272 274 270 274 271 268 274 275 276 276 278 279 282 286 288 287 288
20 359 346 341 320 296 275 255 293 302 283 283 292 283 265 256 238 240 258 291 298 280 268 269 273 275 276 278 274 271 269 269 273 274 273 273 277 278 281 282 282 283 286
321 302 301 314 302 292 289 286 317 318 307 306 295 286 274 258 245 244 242 245 272 293 281 273 275 276 276 275 275 272 268 269 271 272 272 274 277 279 282 281 279 280 283
315 299 286 278 295 308 288 257 257 269 288 294 292 287 281 265 247 240 234 236 243 267 281 282 277 278 278 276 275 272 267 268 269 270 270 271 274 276 279 281 282 281 281
321 303 284 283 286 288 294 275 256 229 262 277 274 275 276 263 247 244 237 238 239 239 250 285 289 286 282 276 273 272 271 267 265 268 270 272 272 273 276 278 279 281 281
321 302 285 292 284 261 283 281 264 258 242 259 277 282 279 265 239 230 237 241 240 241 253 265 273 282 285 281 277 276 274 271 269 267 267 270 271 272 273 276 278 280 281
319 306 293 287 281 255 248 249 251 261 262 261 294 300 290 265 237 236 236 234 244 250 257 261 260 266 278 285 282 279 276 275 272 270 268 268 270 273 274 277 279 281 281
297 297 286 276 269 260 262 246 220 236 270 253 165 345 315 308 288 266 261 243 254 275 278 274 258 259 261 265 287 288 282 280 278 275 272 270 270 271 273 275 278 281 283
292 284 279 269 266 243 244 249 230 212 238 257 205 175 195 250 293 280 248 245 265 282 281 281 281 277 273 263 272 286 288 285 283 281 279 276 274 273 273 275 277 280 282
287 281 275 265 255 247 244 246 240 231 221 243 256 230 216 198 215 281 278 261 265 267 267 285 281 279 282 274 275 287 290 292 288 284 282 279 278 276 276 278 278 278 280
289 281 271 261 255 250 245 245 241 233 223 228 232 234 229 236 222 226 269 280 282 260 261 261 266 274 278 275 273 279 292 293 290 289 288 284 281 279 280 281 280 277 278
291 287 277 265 258 254 246 243 240 238 232 230 229 223 219 224 217 217 246 272 280 280 280 267 255 258 265 270 279 294 295 294 293 291 292 292 290 288 287 286 283 281 279
288 284 287 276 269 263 259 248 246 247 237 233 232 232 230 236 236 233 243 266 278 284 273 272 260 263 278 276 276 293 291 296 296 296 295 295 296 295 293 291 288 285 283
274 280 279 277 277 271 269 256 248 248 242 236 240 235 237 240 234 236 233 242 277 282 268 267 282 259 271 281 286 296 289 295 295 295 295 294 296 296 294 292 290 285 285
276 274 274 275 276 275 267 259 256 257 252 244 242 242 242 244 238 241 239 230 239 272 279 254 263 269 276 279 292 294 290 291 298 300 295 294 294 295 293 290 290 287 287
279 278 277 274 274 271 262 253 258 256 256 254 242 240 246 248 246 243 239 238 235 246 267 261 254 270 281 284 296 300 292 302 299 298 296 296 294 292 293 293 290 286 288
280 276 273 271 270 269 263 257 260 259 253 252 248 241 248 247 249 252 244 239 238 236 259 277 265 279 281 286 305 307 297 290 288 296 298 296 293 294 292 295 292 286 285
279 277 276 270 269 269 260 252 260 259 252 255 257 253 257 254 254 256 252 245 240 233 240 268 282 284 284 287 292 293 300 299 289 294 300 298 295 297 297 296 296 286 284
278 280 276 269 267 264 259 254 249 255 258 256 253 252 256 253 256 257 257 251 245 244 239 252 276 280 284 295 306 301 300 301 303 301 303 300 302 304 303 298 297 295 293
273 275 271 268 265 261 259 261 257 254 260 262 254 251 252 246 246 249 250 246 248 245 243 252 268 277 282 291 289 298 308 311 304 305 307 306 312 313 310 302 296 297 296
276 274 277 277 271 261 258 259 257 255 257 263 264 260 255 258 256 255 256 246 238 238 245 253 261 275 278 299 283 283 288 304 301 294 308 307 307 306 310 305 299 295 298
279 277 274 274 274 273 272 263 261 257 258 258 262 269 270 266 267 270 266 263 252 238 239 246 258 260 265 269 272 271 285 300 302 309 312 306 311 301 300 297 307 309 307
281 279 277 274 269 272 279 270 267 260 256 256 259 267 279 282 291 275 278 283 280 279 268 254 252 254 257 250 252 265 264 276 275 284 302 297 307 297 299 305 316 316 315
275 274 274 271 274 279 288 284 283 264 257 259 256 254 261 272 271 269 271 272 271 285 284 268 250 259 261 247 232 239 251 276 285 290 283 280 299 299 311 308 317 325 332
274 273 274 268 270 283 292 291 295 272 263 268 264 260 263 257 265 280 272 268 294 300 302 291 288 293 296 294 279 225 254 286 299 300 290 263 291 305 308 309 322 335 336
280 285 285 276 269 275 291 299 301 269 267 277 278 271 272 271 268 273 247 237 263 282 302 322 324 320 311 311 312 271 224 242 282 290 260 250 294 328 316 311 330 327 322